Regional Weather Roundup
Issued by NWS State College, PA

Home | Current Version | Previous Version | Graphics & Text | Print | Product List | Glossary Off
Versions: 1 2 3 4 5 6 7 8 9 10 11 12 13 14 15 16 17 18 19 20 21 22 23 24 25 26 27 28 29 30 31 32 33 34 35 36 37 38 39 40 41 42 43 44 45 46 47 48 49 50

000
ASUS41 KCTP 181603
RWRCTP

REGIONAL WEATHER ROUNDUP
NATIONAL WEATHER SERVICE STATE COLLEGE PA
1100 AM EST SUN FEB 18 2018

Note: "fair" indicates few or no clouds below 12,000 feet with no
significant weather and/or obstructions to visibility.

* = STATION THAT DOES NOT REPORT PRECIPITATION /E.G. RAIN...SNOW...ETC/
    THUNDER OR FOG.

PAZ002>004-007>009-013>016-020>023-029>032-181700-
WESTERN PENNSYLVANIA

CITY           SKY/WX    TMP DP  RH WIND       PRES   REMARKS
ERIE           CLOUDY    34  26  72 W7        30.36R
MEADVILLE      CLOUDY    32  26  78 VRB7      30.32R
FRANKLIN*      CLOUDY    32  23  69 W7        30.32R
NEW CASTLE     CLOUDY    35  26  69 W5        30.36R
BEAVER COUNTY  CLOUDY    36  25  64 W5        30.35R
BUTLER*        CLOUDY    34  24  67 W6        30.35R
PITTSBURGH INT PTSUNNY   35  29  78 NW5       30.35R
PITTSBURGH     CLOUDY    35  26  69 NW6       30.34R
INDIANA*       CLOUDY    34  27  75 NW7       30.36S
LATROBE        PTSUNNY   36  27  69 NW7       30.35R
WASHINGTON CO* CLOUDY    36  27  69 W7        30.38R
$$

PAZ004>006-010>012-017>019-024>028-033>037-041-042-045-046-049>053-181700-
CENTRAL PENNSYLVANIA

CITY           SKY/WX    TMP DP  RH WIND       PRES   REMARKS
BRADFORD       CLOUDY    30  21  69 W10       30.26R
DUBOIS         CLOUDY    29  21  72 NW13      30.29R
CLEARFIELD     CLOUDY    31  22  69 NW10      30.31R
JOHNSTOWN      CLOUDY    30  23  75 NW10      30.26S
ALTOONA        PTSUNNY   33  23  66 N9        30.33R
STATE COLLEGE  CLOUDY    34  25  69 NW7       30.32R
WILLIAMSPORT   PTSUNNY   39  24  55 W9        30.32R
SELINSGROVE    PTSUNNY   38  23  55 NW9       30.35R
FT INDIANTOWN  FAIR      39  25  57 N10G21    30.34R
CAPITAL CITY   CLOUDY    41  28  60 NW7       30.36R
HARRISBURG     PTSUNNY   40  28  62 NW3       30.36R
YORK           FAIR      40  28  62 N5        30.36R
$$

PAZ038>040-043-044-047-048-054-055-060>062-067>071-181700-
EASTERN PENNSYLVANIA

CITY           SKY/WX    TMP DP  RH WIND       PRES   REMARKS
SCRANTON       CLOUDY    34  23  64 N10G22    30.30R
MOUNT POCONO   NOT AVBL
ALLENTOWN      FAIR      39  23  52 NW8       30.32R
QUAKERTOWN*    MOSUNNY   39  23  52 W8        30.33R
READING        FAIR      39  27  62 NW10      30.34R
LANCASTER      PTSUNNY   39  27  62 NW5       30.36R
COATESVILLE    FAIR      37 N/A N/A NW9       30.35S
POTTSTOWN      FAIR      38  23  55 NW8       30.36R
BLUE BELL      FAIR      37  27  65 W8G16     30.36R
DOYLESTOWN     FAIR      38  25  59 NW13G20   30.33R
WILLOW GROVE   NOT AVBL
NORTH PHILA    FAIR      41  27  57 NW10      30.37R
PHILADELPHIA   FAIR      40  26  57 NW14      30.38R
$$




USA.gov is the U.S. government's official web portal to all federal, state and local government web resources and services.